עמוד ראשי
METAR-TAF:

METAR-TAF

שדות תעופה :

Kake, אלסקה, ארצות הברית

קו רוחב: 56-57N, קו אורך: 133-54W, גובה: 52מטר

תצפית מזג אוויר נוכחית

הדו"ח נערך לפני 1 שעות ו 1דקות, בשעה 09:56 UTC
רוח 5קשר מכיוון מזרח
טמפרטורת 12 צלסיוס
לחות 82%
לחץ 1015 hPa
ראות: 16.1קילומטר
מעונן בגובה 8500רגל

METAR: PAFE 240956Z AUTO 09005KT 10SM OVC085 12/09 A2997 RMK AO2 SLP161 T01220094

זמן: 02:57 (10:57 UTC)


TAF: חסר

תצפיות ותחזיות מזג אוויר לגבי יותר מ- 4,000 שדות תעופה ברחבי העולם. דוחות METAR ו- TAF.

התחנות הזמינות מסומנות בנקודות צהובות ואדומות על גבי המפה.

העבר את העכבר לנקודה הצבעונית על מנת לראות את שם התחנה.

לאחר מכן, לחץ כדי לראות את תוכן ואת תחזיות מזג האוויר.

כדי לשנות את המפה: לחץ על הכפתורים הירוקים עם הפלוס השחור כדי להתקרב; על הכפתור הירוק עם המקף כדי להתרחק; או בחיצים הירוקים למפות סמוכות.


METAR-TAF: